[[{"header":{"parameterUnit":"m.s-1","parameterCategory":1,"la1":30.2991,"la2":30.254,"lo1":-89.0895,"lo2":-89.0444,"dy":0.0017,"dx":0.0017,"nx":28,"ny":28,"refTime":"2024-05-06T03:00:00:Z","depth":0,"parameterNumber":2,"parameterNumberName":"U-component_of_WINDS"},"data":[0,0,0,0,0,0,0,0,0,0,0,0,0,0,0,0,0,0,0,0,0,0,0,0,0,0,0,0,0,0,0,0,0,0,0,0,0,0,0,0,0,0,0,0,0,0,0,0,0,0,0,0,0,0,0,0,0,0,-0.7713,-0.7713,0,-0.7681,-0.7681,-0.7681,-0.7701,-0.7702,-0.7703,-0.7704,-0.767,-0.7668,-0.7666,0,0,0,0,0,0,0,0,0,0,0,0,0,-0.7791,-0.7789,-0.7713,-0.7713,-0.7712,-0.7681,-0.7681,-0.768,-0.7701,-0.7702,-0.7703,-0.7704,-0.767,-0.7668,-0.7666,0,0,0,0,0,0,0,0,0,0,0,0,0,-0.7758,-0.7789,-0.7713,-0.7719,-0.7719,-0.7681,-0.7681,-0.768,-0.7701,-0.7702,-0.7704,-0.7705,-0.7671,-0.7669,-0.7666,-0.762,0,0,-0.7658,-0.7656,0,0,0,0,0,0,0,0,-0.776,-0.7755,-0.7718,-0.7718,-0.7719,-0.7697,-0.7696,-0.766,-0.77,-0.7708,-0.7704,-0.7706,-0.7677,-0.7674,-0.7665,-0.7619,-0.7617,-0.7657,-0.7656,-0.7655,-0.7654,0,0,0,0,0,0,0,-0.7762,-0.7757,-0.7701,-0.7718,-0.7718,-0.7723,-0.772,-0.7689,-0.7685,-0.7707,-0.7709,-0.7705,-0.7678,-0.7668,-0.7665,-0.7617,-0.7657,-0.7655,-0.7653,-0.7652,-0.7532,-0.7531,0,0,0,0,0,0,-0.7764,-0.7758,-0.7702,-0.77,-0.7743,-0.772,-0.7717,-0.7702,-0.7685,-0.7684,-0.7703,-0.7706,-0.7672,-0.7668,-0.7663,-0.7609,-0.7655,-0.7652,-0.765,-0.7534,-0.7532,-0.753,0,0,0,0,0,0,-0.7766,-0.7759,-0.7703,-0.7729,-0.7723,-0.7717,-0.7701,-0.7701,-0.7691,-0.7682,-0.7682,-0.7694,-0.7673,-0.7667,-0.7631,-0.7608,-0.7651,-0.7648,-0.7535,-0.7533,-0.7531,-0.7501,0,0,0,0,0,0,-0.7768,-0.7759,-0.7742,-0.7729,-0.7721,-0.7671,-0.77,-0.7699,-0.7686,-0.7689,-0.7673,-0.7672,-0.7673,-0.7635,-0.7628,-0.7606,-0.7646,-0.7537,-0.7534,-0.7532,-0.7504,-0.7498,-0.7492,0,0,0,0,0,-0.777,-0.7734,-0.7741,-0.7734,-0.77,-0.767,-0.7665,-0.7668,-0.7684,-0.7667,-0.7662,-0.7673,-0.7612,-0.7631,-0.7624,-0.76,-0.7539,-0.7535,-0.7532,-0.7506,-0.7499,-0.7493,0,0,0,0,0,0,-0.7745,-0.7733,-0.774,-0.7699,-0.7685,-0.7673,-0.7652,-0.766,-0.7641,-0.7644,-0.7648,-0.7644,-0.7607,-0.76,-0.7621,-0.7555,-0.7578,-0.7573,-0.7561,-0.7554,-0.7548,-0.7551,-0.7644,0,0,0,0,0,-0.7734,-0.7711,-0.7702,-0.7667,-0.766,-0.7657,-0.7644,-0.7647,-0.7633,-0.7627,-0.7619,-0.7605,-0.7583,-0.7568,-0.7547,-0.7503,-0.75,-0.7483,-0.7477,-0.7473,-0.7468,-0.7444,-0.7437,-0.7518,-0.7518,-0.7518,0,0,-0.7712,-0.7703,-0.7688,-0.7661,-0.7651,-0.7627,-0.7652,-0.7625,-0.7608,-0.7623,-0.7589,-0.7582,-0.7567,-0.7527,-0.7508,-0.752,-0.7445,-0.7468,-0.7465,-0.7462,-0.744,-0.7432,-0.7425,-0.7516,-0.7516,-0.7517,0,0,-0.766,-0.7651,-0.762,-0.761,-0.7595,-0.7593,-0.7586,-0.7573,-0.7569,-0.7535,-0.7546,-0.7525,-0.7487,-0.7475,-0.7464,-0.7408,-0.7418,-0.7401,-0.7372,-0.7349,-0.7342,-0.7337,-0.7317,-0.731,-0.7397,-0.7397,-0.7397,0,-0.7635,-0.7599,-0.7603,-0.7576,-0.7564,-0.7578,-0.7547,-0.7536,-0.7515,-0.7506,-0.7519,-0.7472,-0.7462,-0.7419,-0.7406,-0.7396,-0.7388,-0.7403,-0.7343,-0.7337,-0.7332,-0.7313,-0.7306,-0.7395,-0.7395,-0.7395,-0.7396,0,-0.7569,-0.7544,-0.7521,-0.7501,-0.7486,-0.7457,-0.7457,-0.7441,-0.7446,-0.7443,-0.7408,-0.7397,-0.7374,-0.7364,-0.7368,-0.7322,-0.733,-0.7343,-0.7366,-0.7323,-0.7305,-0.7298,-0.7392,-0.7393,-0.7394,-0.7394,0,0,-0.7499,-0.7482,-0.7473,-0.7464,-0.7448,-0.7429,-0.7401,-0.7379,-0.7366,-0.7351,-0.7327,-0.7295,-0.7307,-0.7295,-0.7298,-0.7277,-0.7234,-0.7293,-0.7293,-0.7282,-0.7183,-0.7173,-0.7165,-0.724,-0.7239,-0.7238,-0.7184,0,-0.7447,-0.7398,-0.74,-0.7354,-0.7332,-0.7345,-0.732,-0.7308,-0.7304,-0.7284,-0.728,-0.7257,-0.7275,-0.7268,-0.7248,-0.7243,-0.7214,-0.7247,-0.7218,-0.7217,-0.7222,-0.7156,-0.7145,-0.7095,-0.7178,-0.7176,-0.7176,0,-0.7378,-0.7361,-0.7313,-0.7301,-0.7292,-0.7269,-0.725,-0.7231,-0.7217,-0.7216,-0.7202,-0.7209,-0.718,-0.7204,-0.7165,-0.7187,-0.7176,-0.7171,-0.717,-0.7167,-0.7194,-0.7151,-0.708,-0.7072,-0.7165,-0.7166,-0.7166,0,-0.7333,-0.7298,-0.7264,-0.7256,-0.7241,-0.7225,-0.7218,-0.7206,-0.7193,-0.7176,-0.7167,-0.7147,-0.7136,-0.712,-0.7121,-0.7138,-0.7081,-0.7105,-0.7079,-0.7079,-0.7066,-0.7067,-0.6992,-0.7059,-0.7059,-0.7059,-0.7059,0,-0.7274,-0.7244,-0.7244,-0.7223,-0.719,-0.7194,-0.7161,-0.7155,-0.7144,-0.7123,-0.7133,-0.7112,-0.7114,-0.7094,-0.7094,-0.7062,-0.7056,-0.7055,-0.7055,-0.7054,-0.7054,-0.7046,-0.705,-0.7057,-0.7057,-0.7058,-0.7058,0,-0.7217,-0.7216,-0.7181,-0.7169,-0.7166,-0.7142,-0.7132,-0.7113,-0.711,-0.7083,-0.7077,-0.7073,-0.7049,-0.7049,-0.7021,-0.7022,-0.6982,-0.6986,-0.6987,-0.6988,-0.6962,-0.6965,-0.6879,-0.6868,-0.6942,-0.6941,-0.6941,0,-0.718,-0.7157,-0.7143,-0.713,-0.7122,-0.71,-0.7087,-0.7089,-0.7075,-0.7058,-0.7041,-0.7018,-0.7,-0.6962,-0.6957,-0.6936,-0.694,-0.6911,-0.6937,-0.6936,-0.694,-0.6941,-0.6939,-0.6906,-0.6905,-0.6905,-0.6904,0,-0.7113,-0.7114,-0.7095,-0.7075,-0.7059,-0.7043,-0.7029,-0.7018,-0.7019,-0.7002,-0.6978,-0.6964,-0.6937,-0.6914,-0.6894,-0.6887,-0.6896,-0.6896,-0.6889,-0.6888,-0.6889,-0.6888,-0.6973,-0.6898,-0.6899,-0.6899,-0.69,-0.69,-0.7065,-0.7046,-0.7033,-0.7012,-0.7001,-0.6988,-0.6969,-0.6964,-0.6944,-0.6922,-0.6925,-0.6899,-0.6886,-0.686,-0.6851,-0.683,-0.684,-0.683,-0.6827,-0.6825,-0.6822,-0.6892,-0.6826,-0.6827,-0.6827,-0.6827,-0.6827,0,-0.7,-0.6993,-0.6972,-0.6952,-0.6935,-0.6945,-0.6929,-0.6914,-0.6891,-0.6878,-0.6861,-0.6833,-0.6812,-0.6805,-0.6784,-0.6768,-0.6772,-0.6763,-0.6764,-0.6762,-0.6814,-0.6823,-0.676,-0.6761,-0.6761,-0.6761,-0.6761,-0.6761,-0.6964,-0.6932,-0.6931,-0.6893,-0.6886,-0.686,-0.6851,-0.6838,-0.6828,-0.6797,-0.6779,-0.6775,-0.6764,-0.6743,-0.6723,-0.6722,-0.6714,-0.6703,-0.6703,-0.6752,-0.6759,-0.6765,-0.6773,-0.6701,-0.6701,-0.6653,-0.6653,-0.6652]},{"header":{"parameterUnit":"m.s-1","parameterCategory":1,"la1":30.2991,"la2":30.254,"lo1":-89.0895,"lo2":-89.0444,"dy":0.0017,"dx":0.0017,"nx":28,"ny":28,"refTime":"2024-05-06T03:00:00:Z","depth":0,"parameterNumber":3,"parameterNumberName":"V-component_of_WINDS"},"data":[0,0,0,0,0,0,0,0,0,0,0,0,0,0,0,0,0,0,0,0,0,0,0,0,0,0,0,0,0,0,0,0,0,0,0,0,0,0,0,0,0,0,0,0,0,0,0,0,0,0,0,0,0,0,0,0,0,0,7.2587,7.2588,0,7.2676,7.2677,7.2678,7.2681,7.268,7.2679,7.2678,7.2763,7.2766,7.2769,0,0,0,0,0,0,0,0,0,0,0,0,0,7.2417,7.242,7.2587,7.2588,7.2589,7.2675,7.2677,7.2678,7.2682,7.268,7.2679,7.2678,7.2762,7.2766,7.2769,0,0,0,0,0,0,0,0,0,0,0,0,0,7.2497,7.2421,7.2587,7.2602,7.2604,7.2675,7.2677,7.2678,7.2682,7.268,7.2679,7.2677,7.276,7.2765,7.277,7.283,0,0,7.2785,7.2787,0,0,0,0,0,0,0,0,7.2492,7.2503,7.2598,7.2601,7.2604,7.2666,7.2648,7.2729,7.2682,7.2652,7.2678,7.2677,7.2731,7.2739,7.2758,7.2834,7.2838,7.2785,7.2788,7.279,7.2791,0,0,0,0,0,0,0,7.2487,7.2499,7.2622,7.26,7.2603,7.2603,7.2612,7.2663,7.2699,7.2655,7.2655,7.2666,7.2732,7.2754,7.276,7.2839,7.2785,7.2789,7.2792,7.2794,7.2971,7.2972,0,0,0,0,0,0,7.2479,7.2494,7.2619,7.2625,7.2543,7.2607,7.2618,7.2647,7.2699,7.2705,7.2667,7.2666,7.2746,7.2755,7.2763,7.2838,7.279,7.2794,7.2797,7.2969,7.2971,7.2973,0,0,0,0,0,0,7.2475,7.249,7.2616,7.256,7.2576,7.2612,7.2645,7.265,7.2671,7.2708,7.2714,7.2683,7.2745,7.2756,7.2814,7.2841,7.2797,7.2801,7.2967,7.2969,7.2972,7.2988,0,0,0,0,0,0,7.247,7.2489,7.2513,7.256,7.2579,7.2667,7.2647,7.2653,7.268,7.2679,7.2724,7.273,7.2745,7.2807,7.2819,7.2847,7.2805,7.2964,7.2968,7.2971,7.2986,7.2991,7.2996,0,0,0,0,0,7.2464,7.2512,7.2514,7.2529,7.261,7.2668,7.2678,7.2696,7.2682,7.2707,7.2731,7.2729,7.2837,7.2813,7.2827,7.2856,7.2963,7.2967,7.2971,7.2983,7.299,7.2996,0,0,0,0,0,0,7.2464,7.2519,7.2521,7.2586,7.2623,7.2669,7.2699,7.2703,7.2743,7.274,7.2759,7.2769,7.2826,7.2847,7.282,7.2918,7.2898,7.2905,7.2903,7.291,7.2915,7.2908,7.2809,0,0,0,0,0,7.2472,7.2516,7.2561,7.2614,7.2633,7.2663,7.2689,7.27,7.2738,7.2753,7.2781,7.2816,7.2858,7.2885,7.2925,7.2989,7.2999,7.3016,7.3022,7.3026,7.3031,7.3067,7.3076,7.2986,7.2986,7.2986,0,0,7.2488,7.2523,7.255,7.2615,7.2645,7.2689,7.2676,7.2723,7.2755,7.2759,7.2816,7.2838,7.2879,7.294,7.2968,7.2959,7.3059,7.3031,7.3034,7.3037,7.3072,7.3081,7.3088,7.2989,7.2989,7.2988,0,0,7.254,7.2571,7.262,7.2651,7.2697,7.2717,7.2729,7.2775,7.2791,7.2849,7.2853,7.2892,7.2963,7.2993,7.3017,7.3083,7.3083,7.3095,7.3123,7.3158,7.3165,7.3171,7.3195,7.3204,7.3101,7.3101,7.3101,0,7.2553,7.2622,7.2643,7.2692,7.272,7.2729,7.2778,7.2806,7.2862,7.2881,7.287,7.2962,7.299,7.3059,7.3075,7.3094,7.3108,7.309,7.3163,7.3169,7.3175,7.3198,7.3207,7.3102,7.3102,7.3102,7.3102,0,7.2637,7.2684,7.2718,7.2775,7.2808,7.2855,7.2883,7.2913,7.2922,7.2943,7.3003,7.3037,7.3086,7.3103,7.311,7.3173,7.3166,7.3159,7.3139,7.3185,7.3207,7.3216,7.3104,7.3104,7.3103,7.3103,0,0,7.2689,7.276,7.2772,7.2799,7.2852,7.2888,7.2937,7.2987,7.3012,7.3051,7.3092,7.3154,7.3148,7.3176,7.3187,7.3218,7.3269,7.3207,7.3208,7.3218,7.3341,7.3346,7.3356,7.327,7.3272,7.3273,7.3338,0,7.2747,7.2836,7.2858,7.2933,7.2978,7.2988,7.303,7.3066,7.3088,7.3128,7.315,7.3195,7.3184,7.3201,7.3232,7.3256,7.3294,7.3252,7.3307,7.3309,7.3296,7.3367,7.3372,7.3432,7.3346,7.3348,7.3349,0,7.2826,7.2871,7.2951,7.3,7.302,7.3058,7.3106,7.3144,7.3186,7.3199,7.3232,7.3241,7.3291,7.3269,7.3338,7.3309,7.3333,7.3348,7.3351,7.3356,7.3331,7.3374,7.3451,7.346,7.3362,7.3361,7.336,0,7.2857,7.2936,7.2996,7.3018,7.3076,7.3103,7.3128,7.3168,7.3198,7.3239,7.3259,7.3305,7.333,7.3365,7.3386,7.3368,7.3453,7.3433,7.3465,7.3465,7.3482,7.348,7.3563,7.3498,7.3497,7.3497,7.3497,0,7.292,7.2969,7.3011,7.3047,7.3102,7.3126,7.318,7.3205,7.3241,7.3281,7.3292,7.3329,7.3355,7.3395,7.3412,7.3467,7.3478,7.3489,7.3493,7.3488,7.3487,7.3504,7.35,7.35,7.3499,7.3499,7.3498,0,7.2963,7.2993,7.3058,7.311,7.3124,7.3162,7.3205,7.324,7.3263,7.3314,7.3327,7.3362,7.3411,7.3436,7.3496,7.3507,7.3569,7.357,7.3556,7.3557,7.3588,7.3585,7.3684,7.3699,7.3624,7.3624,7.3625,0,7.3001,7.304,7.3096,7.3125,7.3152,7.3198,7.3229,7.3255,7.3286,7.3338,7.3366,7.3416,7.3457,7.3534,7.3564,7.361,7.3612,7.3644,7.3619,7.3614,7.3613,7.361,7.3614,7.3648,7.3649,7.3649,7.365,0,7.3065,7.3079,7.3124,7.3176,7.3213,7.3254,7.3294,7.3316,7.3348,7.3383,7.3434,7.3467,7.353,7.3579,7.3627,7.3651,7.3656,7.3658,7.3668,7.3663,7.3653,7.3659,7.3568,7.3655,7.3655,7.3654,7.3654,7.3654,7.3107,7.3143,7.3189,7.3239,7.3273,7.3311,7.3347,7.3376,7.342,7.3474,7.3486,7.3541,7.3582,7.3649,7.3674,7.3716,7.3709,7.3724,7.3727,7.373,7.3732,7.3648,7.3725,7.3725,7.3725,7.3725,7.3725,0,7.3172,7.3203,7.325,7.3307,7.3347,7.3351,7.3396,7.3428,7.3477,7.3516,7.3557,7.3617,7.3665,7.37,7.3749,7.3776,7.3779,7.3788,7.3785,7.3791,7.3735,7.3722,7.3784,7.3784,7.3784,7.3784,7.3784,7.3784,7.3211,7.3271,7.3291,7.3368,7.3398,7.3453,7.3479,7.3514,7.3545,7.3612,7.3654,7.3677,7.3714,7.3766,7.3811,7.3819,7.3837,7.3845,7.3854,7.3801,7.3795,7.3789,7.3776,7.3849,7.3849,7.3907,7.3907,7.3908]}]]